Temp
11 11 11 11 11 11 12 12 12 12 12 12 12 12 13 13 13 13 14 14 14 14 14 15 15 15 15 15 15 15 15 15 15 15 15 15 15 15 15 15 15 15 14 14 14 14 14 14 14 14 14 14 15 16 16 17 17 17 17 18 17 17 17 17 17 17 17 17 17
11 11 11 11 11 11 12 12 12 12 12 12 12 12 13 13 13 13 14 14 14 14 15 15 15 15 15 15 15 15 15 15 15 15 15 15 15 15 15 15 15 15 14 14 14 14 14 14 14 14 14 14 14 15 16 17 17 18 18 18 18 17 17 17 17 17 17 17 17
11 11 11 11 11 11 12 12 12 12 12 12 12 12 12 13 13 13 14 14 14 14 15 15 15 15 15 15 15 15 15 15 15 15 15 15 15 15 15 15 15 15 14 14 14 14 14 13 13 13 14 14 14 14 15 16 18 19 19 19 18 17 17 17 17 17 17 17 17
11 11 11 11 11 11 11 12 12 12 12 12 12 12 12 13 13 13 14 14 14 14 15 15 15 15 15 15 15 15 15 15 15 15 15 15 15 15 15 15 15 15 14 14 14 14 13 13 13 13 13 14 14 14 15 16 18 19 19 19 18 17 17 17 17 17 17 17 17
11 11 11 11 11 11 11 12 12 12 12 12 12 12 13 13 13 13 14 14 14 14 15 15 15 15 15 15 15 15 15 15 15 15 15 15 15 15 15 14 14 14 14 14 14 14 14 13 13 13 14 14 14 15 15 17 18 19 19 18 17 17 17 17 17 17 17 17 17
12 12 12 12 12 12 12 12 12 12 12 12 13 13 13 13 13 13 14 14 14 14 14 15 15 14 14 15 15 15 15 15 14 14 14 15 15 14 14 14 14 14 14 14 14 14 14 14 14 14 14 14 14 15 16 17 18 18 17 16 16 16 17 17 17 17 17 17 17
12 12 12 12 12 12 12 12 12 12 12 12 13 13 13 13 13 13 14 14 14 14 14 14 14 14 14 14 14 14 14 14 14 14 14 14 14 14 14 14 14 14 14 14 14 14 14 14 14 14 14 14 14 15 15 16 16 16 15 15 16 16 16 17 17 17 17 17 17
12 12 12 12 12 12 12 12 12 12 12 13 13 13 13 13 13 13 14 14 14 14 14 14 14 14 14 14 14 14 14 14 14 14 14 14 14 14 14 14 14 14 14 14 14 13 13 13 14 14 14 14 14 14 14 15 14 14 14 15 16 16 16 16 17 17 17 17 17
12 12 12 12 12 12 13 13 13 13 13 13 13 13 13 13 13 13 14 14 14 14 14 14 14 14 14 14 14 14 14 14 14 14 14 14 14 14 14 14 14 14 13 13 13 13 13 13 13 13 13 13 13 14 14 14 14 14 14 15 15 16 16 16 16 16 16 16 17
12 12 12 12 12 12 12 13 13 13 13 13 13 13 13 13 13 14 14 14 14 14 14 14 14 14 14 14 14 14 14 14 14 14 14 13 13 14 14 13 13 13 13 13 13 13 13 13 13 13 13 13 13 13 13 13 13 14 14 14 15 15 16 16 16 16 16 16 16
12 12 12 12 12 12 12 13 13 13 13 13 13 13 13 13 14 14 14 14 14 14 14 14 14 14 14 14 14 14 14 14 14 14 13 13 13 13 13 13 13 13 13 13 13 13 13 13 13 13 13 13 13 13 13 13 13 13 14 14 14 15 15 15 16 16 16 16 16
12 12 12 12 12 12 12 13 13 13 13 13 13 13 14 14 14 14 14 14 14 14 14 14 14 14 14 14 14 14 14 14 14 14 13 13 13 13 13 13 13 13 13 13 13 13 13 13 13 13 13 13 13 13 13 13 13 13 14 14 14 14 15 15 15 16 16 16 16
12 12 12 12 12 13 13 13 13 13 13 13 13 13 14 14 14 14 14 14 14 14 14 14 14 14 14 14 14 14 14 14 14 14 14 13 13 13 13 13 13 13 13 13 13 13 13 13 13 13 13 13 13 13 13 13 14 14 14 14 14 14 14 15 15 16 16 16 16
12 12 12 12 13 13 13 13 13 13 13 13 13 13 14 14 14 14 14 14 14 14 14 14 14 14 14 14 14 14 14 14 14 14 14 14 14 13 13 13 13 13 13 13 13 13 13 13 13 13 13 13 13 13 13 14 14 14 14 14 14 14 14 15 15 16 16 16 16
12 12 12 12 12 13 13 13 13 13 13 13 13 13 14 14 14 14 14 14 14 14 14 14 14 14 14 14 14 14 14 14 14 14 14 14 14 14 14 13 13 13 13 13 13 13 13 13 13 13 13 13 13 13 13 13 13 14 14 14 14 14 15 15 15 15 15 16 16
12 12 12 12 13 13 13 13 13 13 13 13 13 14 14 14 14 14 14 14 14 14 14 14 14 14 14 14 14 14 14 14 14 14 14 14 14 14 14 14 13 13 13 13 13 13 13 13 13 13 13 13 13 13 13 13 13 13 14 14 14 15 15 15 15 15 16 16 16
12 12 12 12 13 13 13 13 12 13 13 13 14 14 14 14 14 14 14 14 14 14 14 14 14 14 14 14 14 14 14 14 14 14 14 14 14 14 14 14 14 13 13 13 13 13 13 13 13 13 13 13 13 13 13 13 13 14 14 14 15 15 15 15 15 15 16 15 15
12 12 12 13 13 13 13 13 13 13 13 14 14 14 14 14 14 14 14 14 14 14 14 14 14 14 14 14 14 14 14 14 14 14 14 14 14 14 14 14 14 14 13 13 13 13 13 13 13 13 13 13 13 13 13 14 14 14 15 15 15 15 15 15 15 15 15 15 15
13 13 13 13 13 13 13 13 13 13 13 14 14 14 14 14 14 14 14 14 14 14 14 14 14 14 14 14 14 14 14 14 14 14 14 14 14 14 14 14 14 14 14 13 13 13 13 13 13 13 13 14 14 14 14 14 15 15 15 15 15 15 15 15 15 15 15 15 15
13 13 13 13 13 13 13 13 13 13 14 14 14 14 14 14 14 14 14 14 14 14 14 14 14 14 14 14 14 14 14 14 14 14 14 14 14 14 14 14 14 14 14 14 14 13 13 13 13 14 14 14 14 14 14 14 15 15 15 15 15 15 15 15 15 15 15 15 15
12 12 13 13 13 13 13 13 13 14 14 14 14 14 14 14 14 14 14 14 14 14 14 14 14 14 14 14 14 14 14 14 14 14 14 14 14 14 14 14 14 14 14 14 14 14 14 14 14 14 14 14 14 14 14 14 14 14 14 14 14 14 14 15 15 15 15 15 14
8 9 10 11 12 13 13 13 14 14 14 14 14 14 14 14 14 14 14 14 14 14 14 14 14 14 14 14 14 14 14 14 14 14 14 14 14 14 14 14 14 14 13 14 14 14 14 14 14 14 14 14 14 14 14 13 13 13 13 13 14 14 14 14 14 14 14 14 14
7 8 9 9 10 11 12 13 14 14 14 14 14 14 14 14 14 14 14 14 14 14 14 14 14 14 14 14 14 14 14 14 14 14 14 14 14 14 14 14 14 13 13 13 14 14 14 14 14 14 14 14 14 14 14 13 13 13 13 13 13 13 13 13 13 13 14 14 14
7 7 8 8 8 9 9 10 10 11 11 12 13 13 13 14 14 14 14 14 14 14 14 14 14 14 14 14 14 14 14 14 14 14 14 14 14 14 14 14 14 13 13 13 13 14 14 13 13 13 13 13 13 13 13 13 13 13 13 13 13 13 13 13 13 13 13 13 14
7 7 7 7 7 8 8 8 8 9 9 10 11 12 12 13 13 13 14 14 14 14 14 14 14 14 14 14 14 14 14 14 14 14 14 14 14 14 14 14 14 14 13 13 13 14 14 14 13 13 13 13 13 13 13 13 13 13 13 12 12 12 12 13 13 13 13 13 14
7 7 7 7 7 7 7 7 7 8 8 9 10 10 11 11 11 12 13 13 13 14 14 14 14 14 14 14 14 14 14 13 13 13 13 13 13 13 13 13 14 14 14 14 14 14 14 14 13 13 13 13 13 13 13 13 13 13 12 12 12 12 12 12 13 13 13 13 14
6 6 6 6 6 6 6 7 7 7 8 8 8 8 9 9 10 10 10 11 12 13 13 14 14 14 14 14 14 14 14 14 14 13 13 13 13 13 13 13 13 13 13 13 14 14 14 14 13 13 13 13 13 13 12 12 12 12 12 12 12 12 12 13 13 13 13 13 13
6 6 6 6 6 6 6 6 6 6 7 7 7 8 8 9 9 9 9 9 10 11 12 12 13 13 13 14 14 14 14 14 14 14 13 13 13 13 13 13 13 13 13 13 13 13 13 13 13 13 13 13 13 12 12 12 12 12 12 12 12 13 13 13 13 13 13 13 13
6 6 6 6 6 6 6 6 6 6 6 6 7 7 8 8 8 8 8 8 9 9 10 10 11 12 12 13 13 13 13 13 13 13 13 13 13 13 13 13 13 13 13 13 13 13 13 13 13 13 13 13 12 12 12 12 12 12 12 12 12 12 13 13 12 12 12 12 13
6 6 6 6 6 6 6 6 6 6 6 6 6 6 7 7 7 7 8 8 8 8 8 9 10 10 10 11 12 12 13 13 13 13 13 13 13 13 13 13 13 13 13 13 13 13 13 13 13 13 13 12 12 12 12 12 12 12 12 12 12 12 12 12 12 12 12 12 12
5 6 6 5 5 5 5 5 5 5 6 6 6 6 6 6 6 6 7 7 7 8 9 9 9 9 9 10 10 11 11 12 12 13 13 13 13 13 13 13 13 13 13 13 13 13 13 13 13 13 12 12 12 12 12 12 12 12 12 12 12 12 12 12 12 12 12 12 12
5 5 5 5 5 5 5 5 5 5 5 5 5 6 6 6 6 6 6 6 7 7 8 8 9 9 9 9 10 10 10 10 11 11 12 12 12 12 12 12 12 12 12 12 12 12 12 12 12 12 12 12 12 12 12 11 11 11 11 11 11 11 11 11 11 11 12 12 12
5 5 5 5 5 5 5 5 5 5 5 5 5 5 5 5 5 6 6 6 6 6 7 7 7 8 8 8 9 9 9 9 10 10 11 11 12 12 12 12 12 12 12 12 12 12 12 12 12 12 12 12 12 12 11 11 11 11 11 11 11 11 11 11 11 11 12 12 12
5 5 5 5 5 5 5 5 5 5 5 5 5 5 5 5 5 5 6 6 6 6 6 6 7 7 7 7 8 8 8 9 9 9 9 10 10 11 11 11 11 12 12 12 12 12 12 12 12 12 12 12 12 11 11 11 11 11 11 11 11 11 11 11 11 11 11 12 12
4 4 4 5 5 5 5 5 5 5 5 5 5 5 5 5 5 5 5 5 6 6 6 6 7 7 7 7 7 7 7 8 8 8 9 9 9 9 10 10 10 11 11 12 12 12 12 12 12 12 11 11 11 11 11 11 11 11 11 11 11 11 11 11 11 11 11 11 11
4 4 4 4 4 4 5 5 5 5 5 5 5 5 5 5 5 5 5 5 5 6 6 6 6 6 7 7 7 7 7 7 7 8 8 8 9 9 8 9 9 10 10 11 11 11 12 11 11 11 11 10 10 10 10 10 10 10 10 10 10 10 10 10 10 10 10 10 10
4 4 4 4 4 4 4 4 4 5 5 5 5 5 5 5 5 5 5 5 5 5 5 5 6 6 6 6 6 6 6 6 6 7 7 7 8 8 8 8 8 9 9 10 10 10 10 10 10 10 10 9 9 9 9 9 8 8 8 8 8 8 8 8 9 9 9 9 9
3 3 4 4 4 4 4 4 4 4 4 4 5 5 5 5 5 5 5 5 5 5 5 5 5 5 5 6 6 6 6 6 6 6 6 6 6 7 7 7 7 7 8 8 8 9 9 9 9 9 9 9 8 8 8 7 7 7 7 7 7 7 7 7 7 7 7 7 8
3 3 3 3 4 4 4 4 4 4 4 4 4 5 5 5 5 5 5 5 5 5 5 5 5 5 5 6 6 6 6 6 6 6 6 5 5 6 6 6 6 6 6 7 7 7 7 7 7 8 8 8 8 7 7 7 6 6 6 6 6 6 6 6 6 6 6 6 7
2 3 3 3 3 3 4 4 4 4 4 4 4 4 4 4 5 5 5 5 5 5 5 5 5 5 5 5 5 5 6 6 6 6 5 5 5 5 5 5 5 5 6 6 6 6 6 6 6 7 7 7 7 7 7 6 6 6 5 5 5 5 5 5 5 6 6 6 6
2 2 2 3 3 3 3 3 4 4 4 4 4 4 4 5 5 5 5 5 5 5 5 5 5 5 5 5 5 5 5 5 5 5 5 5 5 5 5 5 5 5 5 5 6 6 6 6 6 6 6 6 6 6 6 6 5 5 5 4 5 4 4 5 5 5 5 5 6
Height
675 676 676 677 678 678 679 680 680 681 682 683 684 684 685 685 685 685 684 684 684 684 684 684 685 685 685 684 685 686 687 689 691 693 695 697 699 700 702 703 704 706 707 709 710 712 714 716 719 723 727 731 735 739 741 743 744 745 746 747 750 754 756 757 758 759 761 762 764
673 673 674 674 675 676 676 677 678 679 679 680 681 682 682 682 682 682 682 682 681 681 681 682 683 683 683 682 682 683 684 686 688 690 692 694 696 698 699 701 703 704 705 707 709 710 712 714 717 721 725 730 734 738 741 743 743 744 744 746 749 753 756 757 757 758 759 761 763
670 671 671 672 673 673 674 675 675 676 677 678 678 679 679 679 679 679 679 679 679 679 679 679 680 681 680 679 679 680 682 683 685 687 689 692 694 695 697 699 701 703 704 705 708 709 711 712 715 719 723 729 734 738 740 742 742 742 742 744 749 753 755 756 756 757 759 760 762
668 669 669 670 670 671 671 672 673 673 674 674 675 676 676 676 677 677 677 677 677 677 677 678 678 678 678 677 677 678 679 681 682 684 686 689 691 693 694 696 698 700 701 704 706 709 710 712 714 717 721 726 732 736 739 740 739 739 741 745 750 753 754 754 755 756 757 759 761
666 666 666 667 668 668 669 669 670 670 671 672 673 673 673 674 674 674 674 675 675 675 675 675 676 676 675 674 674 674 677 679 680 682 684 686 688 690 691 693 695 697 699 701 704 707 709 711 714 716 720 724 729 733 736 736 736 737 741 746 749 751 752 752 753 754 756 758 759
663 664 664 664 665 666 666 667 667 668 669 669 670 670 670 671 671 672 672 672 673 673 673 674 675 675 674 671 671 672 674 676 678 679 681 683 685 687 689 691 693 694 696 699 703 706 708 710 713 716 719 723 727 730 732 733 733 737 741 746 748 749 749 750 751 753 754 756 758
661 661 662 662 663 663 664 664 664 665 666 667 667 667 668 668 669 669 669 670 671 671 672 672 673 673 671 669 669 670 673 674 676 678 679 680 682 684 687 689 691 693 694 697 701 704 706 708 711 714 718 722 725 727 729 730 733 737 741 744 745 746 747 748 749 751 753 754 756
659 660 660 660 661 661 661 662 662 663 664 664 664 664 665 665 666 667 668 668 669 669 669 670 670 670 669 668 668 669 671 673 675 676 677 679 680 682 684 687 689 691 693 696 700 703 705 706 709 713 716 719 722 724 726 729 733 737 740 742 743 744 745 746 748 749 751 752 754
658 658 659 659 659 659 659 660 660 660 660 661 661 661 662 663 664 665 665 666 666 667 667 668 668 668 667 667 667 668 670 672 673 675 676 677 679 681 683 685 688 690 693 696 699 701 703 705 708 711 714 717 719 722 725 729 734 737 739 741 742 743 744 744 746 747 749 750 752
656 656 657 657 657 657 658 658 658 658 658 658 658 659 660 661 661 662 662 663 664 664 665 665 665 666 666 665 666 667 669 670 672 673 675 676 678 680 682 684 687 689 692 695 698 700 702 704 707 710 713 715 717 721 725 729 733 735 737 739 740 741 742 743 744 745 747 748 749
654 654 654 654 655 655 656 656 656 656 656 656 656 656 657 658 659 659 660 660 661 662 662 663 663 664 664 664 665 666 668 669 671 672 674 676 678 680 682 684 686 689 691 694 697 699 701 704 707 709 712 714 718 721 725 728 730 733 734 737 739 740 741 741 742 743 744 746 747
651 652 652 652 653 653 654 654 654 654 654 655 654 654 655 655 656 657 658 659 659 659 659 660 661 661 662 663 664 665 667 669 670 672 674 675 678 680 682 684 686 689 691 693 696 699 701 704 707 709 712 714 717 720 723 725 727 729 731 734 736 738 739 739 740 741 742 744 745
650 650 650 650 650 651 652 652 652 653 653 653 653 653 653 653 654 655 656 656 656 656 657 658 659 659 660 661 663 664 666 668 669 671 673 675 678 680 682 684 686 688 690 693 695 697 700 702 705 708 710 713 715 718 719 722 724 726 729 732 734 735 736 737 738 739 740 742 744
648 649 649 649 649 649 650 650 651 651 651 651 651 651 651 652 652 653 654 654 654 654 654 655 656 658 659 660 662 663 665 668 669 672 674 676 678 680 682 684 686 688 690 692 694 696 698 700 703 705 708 710 713 714 716 719 722 724 727 729 731 732 734 735 736 737 739 740 742
646 647 647 647 647 647 648 649 649 650 649 649 649 650 650 651 651 652 653 653 653 652 652 653 654 656 658 659 661 663 665 668 669 672 674 675 677 679 681 684 686 688 689 691 693 695 697 699 701 703 705 708 710 712 714 717 720 723 725 727 728 729 731 733 734 735 737 739 740
644 644 645 645 645 646 647 648 648 649 649 648 648 648 649 650 650 651 652 652 652 651 651 651 653 656 658 660 661 663 665 667 669 671 673 674 676 678 680 683 684 687 689 690 693 694 697 699 700 702 704 706 708 710 713 715 718 721 723 724 726 727 729 730 732 734 735 737 739
643 643 644 644 644 645 646 646 647 647 647 646 646 646 647 648 649 650 651 652 652 651 651 651 653 656 658 659 661 663 664 666 668 669 671 673 675 677 679 681 683 685 687 689 691 694 696 698 699 701 703 705 707 709 711 714 717 719 721 723 724 726 727 729 730 732 733 735 737
642 643 643 644 644 644 645 645 646 646 645 644 644 644 645 647 648 650 651 651 651 651 652 653 654 656 658 659 660 662 663 665 667 669 671 672 674 676 678 680 682 684 686 688 690 692 694 697 699 700 702 704 705 708 710 713 716 718 720 721 723 724 726 727 729 730 732 734 735
642 642 642 643 643 643 644 644 644 644 643 642 642 643 644 646 648 649 651 652 652 652 653 654 656 657 658 659 660 662 663 664 666 669 670 672 674 675 677 679 680 682 684 687 689 691 693 695 698 699 701 703 704 707 710 713 716 718 719 720 721 723 724 726 727 729 730 732 734
641 641 641 641 642 642 642 642 642 642 641 641 641 643 644 646 647 649 650 651 652 654 654 655 657 658 659 660 661 662 664 665 666 668 670 672 673 675 676 677 679 681 684 686 688 690 693 694 696 698 699 701 703 706 709 712 714 716 718 719 720 721 722 724 725 727 728 730 732
641 640 640 639 639 640 640 640 640 640 640 641 642 643 644 645 646 648 649 651 653 654 655 656 657 658 660 661 662 664 664 666 667 668 669 671 672 674 675 676 678 680 683 685 688 689 691 693 695 697 699 700 702 704 707 710 712 714 716 717 718 719 721 723 724 725 726 728 729
640 639 638 638 638 639 639 639 639 640 640 641 642 644 644 645 646 647 649 651 653 654 655 656 656 657 659 660 662 663 664 666 667 668 669 670 672 673 675 676 678 680 682 684 687 689 690 692 694 696 698 700 702 704 707 709 710 712 714 715 717 718 720 721 723 723 724 725 727
641 640 639 639 639 638 639 640 640 641 642 643 644 644 645 646 647 647 649 651 653 654 655 655 656 657 658 659 660 662 663 664 666 667 668 670 671 673 675 676 678 680 682 684 685 687 689 691 693 695 697 699 701 704 706 708 709 711 712 714 715 717 719 720 721 722 722 723 724
644 643 643 642 641 640 640 641 642 643 644 644 644 645 646 647 648 648 649 650 652 654 655 655 656 657 658 658 659 660 662 663 664 666 667 668 670 672 674 676 678 679 681 682 684 685 687 689 692 694 696 698 699 701 703 704 706 708 710 712 714 715 717 719 719 719 720 720 721
646 645 645 645 645 644 644 644 644 644 644 644 644 645 646 647 648 649 649 650 651 652 654 655 656 657 657 658 659 660 661 663 664 665 666 668 669 670 672 674 676 678 679 681 682 684 686 688 690 692 694 696 697 699 700 702 704 706 708 709 711 713 715 716 717 717 718 718 719
649 649 649 650 649 649 649 649 648 648 647 647 647 647 647 647 648 649 650 651 651 652 653 654 655 656 657 658 659 660 662 663 664 665 666 668 669 670 671 673 674 675 677 679 681 683 684 686 688 690 692 694 695 697 699 700 702 704 706 708 709 711 712 713 714 715 716 716 717
655 655 656 655 654 654 654 653 652 651 651 650 650 650 650 650 650 650 650 651 652 653 653 654 655 656 657 658 659 660 662 663 664 665 667 668 669 670 671 672 673 674 676 677 679 681 683 684 686 688 690 692 693 695 697 699 701 703 705 706 708 709 709 710 711 713 714 714 715
661 661 661 660 659 659 659 657 656 655 655 655 655 654 654 654 654 654 654 653 653 653 653 654 655 656 657 658 659 660 661 662 664 665 666 667 668 669 671 672 673 674 675 676 678 679 681 683 685 686 688 689 691 693 695 697 699 701 703 704 705 706 707 708 709 710 711 712 713
665 665 664 664 664 663 662 661 661 660 660 659 659 658 657 656 656 657 657 656 655 654 654 654 655 657 658 659 659 660 660 662 663 664 665 666 667 669 670 671 673 674 675 676 677 679 680 682 683 684 686 688 690 692 694 695 697 698 700 701 702 704 704 705 707 708 709 709 710
669 668 667 667 666 666 665 665 665 664 664 663 662 661 660 659 659 659 659 659 659 658 658 657 657 658 658 659 659 660 661 662 662 663 664 665 666 668 669 670 672 673 674 675 677 678 679 681 682 683 685 687 689 691 692 693 694 696 697 698 699 700 701 703 704 705 706 707 709
672 672 671 670 670 669 669 669 669 668 667 666 665 664 663 663 663 663 663 663 663 662 661 660 660 659 659 659 659 660 661 662 663 664 664 664 665 667 668 670 671 673 674 675 676 678 679 680 681 683 684 686 688 689 690 691 692 693 694 695 697 698 699 700 701 703 704 706 708
677 676 675 674 674 674 674 673 672 671 670 669 668 668 667 667 667 667 667 666 666 665 664 663 663 662 662 662 662 662 663 663 664 664 665 665 666 667 668 669 671 672 674 675 676 677 678 679 681 682 684 685 686 688 689 689 690 691 692 694 694 695 697 698 699 701 703 705 706
681 680 680 679 679 678 677 676 675 674 673 672 671 671 671 671 670 670 669 669 668 667 667 666 665 665 665 665 665 665 665 665 665 665 665 666 666 667 668 669 671 672 673 674 675 677 678 679 680 682 683 684 685 687 688 688 689 690 691 692 693 694 695 697 698 700 702 704 706
685 684 684 683 682 681 680 679 677 676 675 674 674 674 674 674 673 672 672 672 671 670 669 669 668 668 667 667 667 667 667 668 667 667 667 667 667 668 668 669 670 671 673 674 674 676 677 678 679 681 682 683 684 685 686 687 688 689 690 691 692 693 694 696 698 699 702 704 706
689 688 687 686 685 684 683 682 680 679 678 678 677 677 677 676 676 676 675 675 674 673 672 671 670 669 669 669 669 669 669 670 669 669 669 669 669 669 669 670 670 671 672 673 674 674 675 677 678 679 680 681 682 683 684 685 686 688 689 690 691 692 694 695 697 699 702 704 706
694 692 691 690 689 688 687 686 684 684 683 682 682 681 681 680 680 679 679 678 677 676 675 674 673 672 672 672 672 672 672 672 672 672 671 671 671 671 671 671 671 671 672 673 673 674 675 676 677 678 679 679 680 681 683 684 684 686 687 689 690 691 693 695 697 699 702 704 706
697 696 695 694 693 692 691 690 689 688 688 687 687 686 685 684 684 683 682 681 680 679 678 677 676 676 675 675 675 675 675 675 674 674 674 674 673 673 673 673 673 673 673 674 674 674 675 676 676 677 678 679 679 680 681 682 683 684 686 688 689 691 693 695 697 699 702 704 706
701 700 699 697 696 696 695 694 693 692 692 692 691 690 689 688 687 686 685 684 683 683 682 681 680 679 679 679 678 678 677 677 677 676 676 676 676 675 675 675 675 675 675 676 676 676 677 677 677 678 678 678 679 680 681 682 683 684 686 688 689 691 693 695 698 700 702 704 706
705 703 702 701 700 699 698 697 697 696 696 695 694 694 693 692 691 690 689 689 688 687 686 684 684 683 682 682 681 680 679 679 679 679 679 678 678 678 678 677 677 678 678 678 678 679 679 679 679 679 679 679 679 680 680 681 683 684 686 688 690 692 694 696 699 701 703 704 706
708 707 705 704 703 702 701 700 700 699 699 698 698 697 696 695 695 694 693 692 691 690 689 688 687 687 686 685 684 683 682 682 681 681 681 681 681 681 680 680 680 680 680 681 681 681 681 681 681 682 682 682 681 681 681 682 683 684 686 688 690 693 695 697 699 701 703 705 706
711 709 708 707 706 705 704 704 703 702 702 701 700 700 699 699 698 697 696 695 694 694 693 692 691 690 689 688 687 687 686 685 685 684 684 684 684 684 683 683 683 683 683 683 683 683 684 684 684 684 684 684 684 683 682 682 683 685 687 689 690 693 695 698 700 702 703 705 706
Wind_Speed
31 30 29 29 27 26 26 28 27 27 27 26 26 27 27 26 26 26 26 27 27 28 29 30 30 30 31 36 39 43 44 43 44 46 48 48 44 41 40 40 41 42 42 42 41 41 42 43 41 39 37 36 35 34 35 37 39 40 39 38 36 35 34 33 34 34 34 34 34
31 30 29 29 28 27 27 27 27 27 27 27 27 27 27 27 27 27 27 28 29 29 30 31 31 31 32 37 42 45 46 46 46 47 49 50 47 44 42 42 42 42 42 42 42 42 43 43 43 41 39 39 38 36 36 38 41 41 40 37 36 35 35 34 34 34 34 34 34
31 30 29 28 27 27 26 26 27 27 28 29 29 28 28 27 27 27 28 29 29 29 30 31 31 32 34 39 44 46 47 47 47 48 49 50 49 47 45 44 44 43 42 43 43 42 43 44 43 42 42 42 41 40 39 41 43 43 41 38 37 37 37 36 35 35 34 34 34
31 30 30 29 29 28 27 27 27 28 29 29 30 29 28 28 29 28 28 29 29 29 30 31 31 31 34 40 45 47 47 48 48 49 50 50 50 48 47 47 47 46 45 43 43 43 43 44 43 42 43 44 44 43 42 42 42 42 41 40 40 39 38 37 36 35 34 34 35
31 31 31 30 31 32 31 29 28 28 29 28 28 28 29 28 28 28 28 28 29 30 31 31 30 29 32 40 45 46 46 46 47 48 48 49 49 48 48 48 48 47 46 44 45 45 45 45 42 42 43 44 43 42 41 41 40 40 40 40 41 40 39 38 37 36 35 35 35
30 30 31 31 32 33 32 31 31 29 28 28 28 28 28 28 28 27 28 29 30 31 31 32 30 28 31 39 43 45 44 44 44 45 46 47 47 47 47 47 47 46 45 44 44 44 45 46 43 43 44 44 42 39 38 38 38 38 38 38 39 39 39 38 37 36 36 35 35
27 28 29 30 31 31 32 32 32 31 29 29 29 29 29 29 28 29 29 30 31 31 31 31 29 28 32 37 40 41 41 41 41 41 42 43 44 45 46 46 46 45 44 43 42 42 44 46 43 43 43 44 41 38 36 37 36 35 34 35 37 38 38 38 38 37 36 35 35
26 26 27 28 29 29 30 31 32 32 31 30 30 30 31 31 30 30 31 31 30 30 30 30 30 31 33 36 37 38 39 38 38 38 39 40 41 43 44 45 44 43 43 43 41 40 42 44 41 41 42 42 40 38 37 37 37 35 34 34 35 36 37 38 38 37 36 36 35
26 26 27 28 28 29 29 30 30 31 31 31 31 32 33 32 32 31 31 31 30 30 30 30 32 34 35 36 37 37 37 37 36 35 35 36 38 40 41 42 41 41 41 41 40 39 39 40 38 38 40 38 37 37 38 39 38 37 35 35 35 35 37 37 38 37 37 36 36
27 27 28 28 28 29 30 30 30 30 31 31 33 33 33 33 33 32 32 31 30 31 32 31 34 36 37 37 37 37 36 36 35 34 34 34 36 38 39 39 39 39 39 39 38 37 37 37 35 35 36 34 35 35 36 37 36 36 36 35 34 34 35 37 37 37 37 37 36
27 28 28 28 28 29 30 30 29 28 28 29 31 32 33 33 33 32 32 32 31 32 33 34 36 38 38 37 36 36 36 35 35 34 33 33 34 36 37 38 38 38 38 38 38 37 36 37 35 35 35 34 34 34 35 35 34 33 33 33 33 34 34 36 37 37 37 37 37
26 27 27 28 28 29 29 28 28 27 27 27 28 30 32 32 31 31 32 32 32 34 35 37 39 40 39 37 35 35 35 35 35 34 33 33 34 35 36 37 37 38 38 39 38 38 37 38 38 37 36 36 35 35 36 36 33 31 31 32 33 33 34 35 36 37 37 37 37
26 27 28 28 28 28 27 26 26 26 27 28 28 29 30 31 31 31 30 30 32 35 38 39 41 41 39 37 35 34 34 34 34 34 33 33 33 34 35 35 36 38 39 40 40 39 38 39 39 38 38 37 35 36 37 38 34 31 31 32 33 34 34 35 36 36 36 36 35
27 28 28 27 25 24 24 23 24 25 27 29 29 30 30 30 31 30 29 27 29 34 38 40 41 41 39 37 35 34 34 35 35 34 34 33 33 33 33 33 34 36 37 38 40 40 39 38 39 39 39 38 36 36 37 39 36 33 33 33 34 34 34 35 35 35 35 35 35
28 28 27 23 21 20 20 21 22 24 26 29 30 31 30 30 30 29 26 23 24 29 36 39 39 39 37 35 34 35 35 36 36 35 35 34 33 33 33 33 33 34 35 36 37 39 39 39 39 40 40 39 38 36 37 38 35 33 33 34 34 34 34 34 34 34 34 34 35
26 25 23 21 19 18 18 19 21 24 27 28 30 31 30 29 28 27 24 21 19 24 31 35 35 35 34 34 35 36 37 36 36 35 34 34 33 34 34 34 34 34 33 33 34 36 38 39 40 41 41 41 39 38 37 37 35 33 32 33 33 34 34 33 34 35 35 35 36
22 21 20 18 18 18 18 19 22 25 26 26 29 30 29 26 24 23 22 20 17 19 25 30 31 32 32 34 36 36 36 35 34 33 32 33 33 34 35 36 36 35 34 33 33 34 35 36 37 39 41 42 41 40 39 38 37 35 34 33 34 34 34 34 35 35 36 37 37
18 18 18 17 18 19 20 22 25 26 24 24 27 28 26 23 22 21 20 19 17 17 21 25 27 28 29 31 33 34 34 34 33 32 32 32 34 35 36 36 36 36 35 33 33 32 33 34 34 36 38 40 41 42 42 42 41 40 38 37 36 36 35 35 35 36 36 37 37
18 18 18 19 20 21 23 26 28 25 21 22 25 25 24 23 22 20 18 18 18 18 19 20 21 22 23 26 28 31 32 33 33 33 33 33 34 35 36 37 36 36 35 33 32 32 33 33 33 34 35 36 39 41 43 44 44 43 42 41 40 38 37 36 36 37 37 36 37
21 22 23 23 24 25 25 26 24 20 18 20 22 23 23 23 23 21 19 19 20 21 21 20 20 19 20 21 24 26 28 30 32 33 33 33 34 34 36 37 37 36 35 33 32 32 33 33 34 34 34 35 36 39 41 43 43 43 42 41 40 39 38 37 37 37 38 37 37
6 8 11 17 22 25 24 20 17 17 18 20 21 21 22 23 24 23 21 21 22 23 23 23 23 23 23 23 24 25 26 27 28 30 32 33 32 32 33 36 37 37 36 35 33 33 33 34 34 34 35 35 35 36 38 38 39 39 39 38 38 38 38 38 37 38 38 38 37
25 24 20 12 1 10 15 15 15 17 19 20 19 19 19 21 24 24 23 22 23 24 24 25 26 26 27 27 28 28 28 28 29 31 32 33 32 30 30 33 36 37 37 36 35 34 33 34 35 35 36 36 37 38 38 37 37 36 36 36 36 36 37 37 37 38 38 37 36
32 33 32 30 25 17 9 6 8 10 11 12 14 15 16 17 22 25 26 24 24 25 25 26 27 28 29 30 30 31 31 31 32 33 34 35 34 33 31 32 36 38 38 37 36 35 34 34 35 36 37 39 40 41 42 41 40 38 37 36 36 36 36 36 37 37 37 36 36
36 36 35 35 34 32 29 23 19 15 12 9 7 8 10 12 16 21 25 26 26 26 26 27 27 27 28 29 30 31 30 29 30 31 33 35 36 36 36 36 37 39 39 38 38 37 36 35 36 37 38 39 40 42 43 42 41 40 38 37 36 36 36 36 36 36 36 36 36
40 40 39 38 37 36 35 33 30 28 25 21 16 12 9 6 7 12 18 23 26 27 27 27 27 26 25 26 28 28 27 25 25 25 26 29 32 35 37 37 39 39 40 39 39 39 39 38 38 37 37 37 37 38 39 39 39 39 38 37 37 37 37 36 36 35 35 35 35
42 42 41 40 39 38 36 35 34 32 31 27 24 20 17 15 11 8 7 12 17 22 26 27 27 25 24 25 26 25 23 22 21 21 22 22 24 27 30 32 34 36 38 39 40 41 41 41 40 39 38 36 35 34 34 34 36 37 37 37 37 37 36 35 34 34 34 34 34
41 41 40 40 40 38 37 36 35 35 35 33 31 29 26 22 20 17 15 11 7 11 17 21 23 25 26 26 26 25 24 23 22 22 22 22 22 22 24 25 27 30 33 36 39 41 42 42 41 41 39 37 34 33 33 34 35 36 36 37 38 37 36 35 34 33 33 33 32
38 38 38 39 39 37 37 37 36 36 35 34 33 32 31 29 27 25 23 20 16 12 9 9 13 17 22 24 26 27 27 26 25 25 24 23 23 23 24 24 25 26 28 32 35 38 40 41 41 41 40 37 34 32 33 35 36 37 37 38 38 37 36 35 34 33 32 31 29
37 37 37 37 37 37 37 37 36 35 33 33 33 33 33 32 31 29 27 25 23 21 17 13 9 8 11 15 20 24 27 28 27 27 26 26 25 25 25 26 26 27 28 30 32 35 37 38 40 40 38 35 33 32 33 35 37 38 38 37 37 37 36 35 34 32 31 29 28
38 38 37 37 37 37 37 36 35 34 34 33 34 34 34 34 32 31 29 28 26 25 21 18 14 12 10 7 9 14 19 23 26 27 28 28 28 27 27 27 27 27 28 29 31 33 35 36 37 38 37 35 33 32 33 35 37 37 37 36 36 35 35 34 32 31 30 29 27
40 39 38 38 37 36 36 35 35 34 35 35 35 35 34 33 31 30 29 28 26 24 22 20 18 17 15 12 9 7 7 12 17 22 26 27 29 29 28 28 27 27 28 29 30 32 33 34 35 34 34 33 32 32 33 34 35 36 35 34 34 34 33 32 31 30 29 29 27
39 39 38 37 36 35 35 35 34 34 35 35 36 35 33 31 30 29 28 27 26 25 23 22 21 19 17 15 13 10 7 5 6 11 17 22 25 26 27 26 26 25 26 27 28 29 30 31 31 31 31 31 30 31 31 32 33 33 33 32 32 32 31 30 29 29 29 29 28
38 38 37 36 35 35 36 36 35 35 35 35 35 34 32 31 30 29 28 27 26 25 25 23 22 21 20 18 16 13 11 9 7 5 7 11 16 18 20 21 22 23 24 25 26 26 27 29 29 29 29 29 29 29 30 30 30 30 30 30 30 29 29 29 29 29 29 30 30
37 37 36 35 35 35 36 37 37 37 37 36 35 34 33 31 31 29 28 27 26 25 24 23 22 21 20 18 17 15 13 11 9 7 5 5 7 9 11 13 15 19 22 24 25 25 27 28 29 29 29 29 30 30 30 29 29 29 28 28 28 29 29 29 30 30 31 32 33
35 35 35 35 35 35 36 37 37 37 37 36 35 34 33 32 30 29 27 26 25 24 24 23 22 21 20 19 17 16 15 13 11 9 7 6 5 5 5 5 7 12 16 19 21 24 26 28 29 29 30 30 31 31 31 30 29 29 28 28 28 29 30 31 31 32 33 33 34
34 33 33 33 34 35 35 36 36 36 36 35 34 33 32 31 30 28 26 25 25 24 24 23 22 21 20 19 18 17 16 15 13 11 9 7 7 7 7 5 3 4 8 11 16 20 23 25 27 28 30 30 30 30 30 29 28 28 28 28 28 28 29 30 31 32 32 33 33
33 32 31 31 32 33 33 34 35 34 34 33 32 32 31 30 29 28 26 25 25 24 24 23 22 21 20 18 17 16 15 14 14 13 12 10 9 9 9 8 8 6 6 8 12 16 20 23 26 28 29 29 29 28 27 27 27 27 27 27 27 28 29 29 30 30 31 31 31
32 31 30 30 30 31 31 32 32 32 31 31 31 31 31 30 29 28 26 25 24 23 22 22 21 20 18 17 16 15 14 13 13 14 14 13 12 11 11 12 11 10 10 11 13 15 18 20 23 25 27 27 27 26 26 26 26 26 26 26 26 27 27 28 28 29 29 30 31
32 31 31 30 29 29 30 30 29 29 29 29 30 30 30 30 29 27 26 24 23 21 20 19 19 18 16 15 14 14 13 12 12 13 14 14 13 12 13 13 13 12 11 11 11 13 14 16 18 20 22 24 25 25 26 26 26 26 26 26 26 26 26 27 27 28 29 30 31
32 32 31 30 29 29 29 28 28 27 27 27 28 28 28 28 27 27 26 24 23 21 19 17 16 15 14 14 13 13 13 12 11 11 11 12 12 12 12 12 12 10 9 8 8 9 10 11 13 16 18 21 23 24 25 26 26 26 26 26 26 26 26 26 27 28 29 30 30
32 32 31 30 30 29 28 28 27 27 26 26 26 25 26 26 26 26 25 24 23 21 19 17 15 14 13 12 12 12 12 12 11 10 9 10 10 10 10 10 10 9 7 6 5 5 6 7 10 13 16 18 21 23 24 26 26 26 26 26 27 27 27 27 27 28 29 29 30
Wind_Direction
221 221 221 221 220 221 222 224 225 226 228 229 231 232 234 235 236 237 236 234 232 232 232 232 230 225 215 205 199 197 197 197 197 197 196 195 195 193 191 189 187 186 185 184 183 182 182 182 181 182 185 189 194 197 199 198 197 196 195 194 195 198 201 203 202 202 202 203 204
223 222 221 220 220 221 222 225 226 227 228 230 231 232 233 234 235 236 235 234 233 232 233 234 235 229 218 206 200 198 197 197 196 196 196 196 195 194 192 190 188 186 184 182 181 181 180 181 182 184 187 192 197 201 203 203 202 199 197 197 199 202 205 206 205 205 205 205 206
226 226 224 222 221 221 222 223 225 226 227 229 231 231 232 232 233 234 235 234 234 234 235 238 239 233 220 206 199 197 196 195 195 195 195 195 195 194 193 190 188 186 183 181 180 179 179 179 181 182 186 191 196 201 203 204 203 202 201 201 204 206 207 207 207 207 207 207 208
227 226 224 222 221 222 223 224 225 225 226 228 230 230 230 231 232 233 234 235 235 235 237 240 241 234 217 203 196 194 194 193 192 192 192 192 192 192 191 189 186 184 183 181 179 179 179 179 179 180 183 188 193 198 201 202 201 200 201 204 207 208 207 207 208 208 208 208 209
226 224 222 221 221 222 224 225 226 226 226 227 228 228 229 230 230 231 233 233 234 235 237 240 241 230 211 196 191 190 190 189 189 188 187 187 187 187 187 185 183 181 180 179 179 179 179 179 179 180 183 187 191 195 198 199 196 196 198 203 207 208 207 207 208 209 209 209 210
223 222 221 221 221 222 223 224 225 226 227 227 227 227 227 228 228 229 230 230 232 234 237 239 236 221 200 187 185 185 185 185 184 184 183 182 183 183 182 181 180 178 177 178 179 180 180 180 180 183 186 189 193 196 198 196 193 194 198 203 206 207 207 207 208 209 209 209 209
223 222 221 221 221 222 223 224 225 225 226 227 227 227 227 227 227 227 228 229 229 231 234 235 227 209 190 180 178 179 179 180 180 179 178 178 178 179 179 178 178 177 176 177 179 181 181 182 184 186 188 191 195 198 198 196 194 197 202 206 207 207 207 207 208 209 209 209 209
227 227 226 225 225 225 225 225 225 225 225 226 228 228 229 228 227 227 227 226 226 228 229 226 214 197 183 175 173 173 174 174 174 174 174 174 174 175 176 176 176 175 176 177 178 180 181 183 185 188 189 190 192 195 196 197 199 204 209 210 210 209 208 207 208 209 209 209 209
231 232 232 231 231 231 231 230 228 225 224 225 227 228 229 229 228 226 225 225 224 225 224 216 201 189 179 173 171 170 171 171 170 170 170 170 171 171 173 173 174 174 175 177 178 179 180 181 182 185 187 188 188 190 193 197 202 207 210 211 210 209 208 208 209 209 209 209 209
231 233 233 233 234 235 235 234 231 227 225 225 227 228 229 228 227 225 224 224 223 221 215 205 192 183 177 173 170 169 169 169 168 167 167 167 168 169 170 171 172 173 175 176 178 179 180 180 181 183 185 185 186 187 191 196 200 204 207 209 210 209 209 208 209 209 209 209 209
230 231 232 233 234 234 234 232 231 230 229 228 228 227 227 226 224 224 223 222 220 214 205 195 186 181 177 173 170 169 168 168 167 166 165 165 166 168 170 172 173 174 175 177 178 180 181 182 183 185 187 188 188 190 192 195 198 201 204 208 210 210 209 209 209 209 209 210 210
230 232 233 233 233 231 230 229 231 233 235 234 231 227 224 222 221 221 220 218 213 205 197 189 184 180 177 174 171 169 167 166 166 165 164 164 165 168 170 172 174 176 178 179 180 181 182 183 186 188 190 191 191 193 196 199 201 203 206 209 211 211 210 209 209 209 209 210 211
235 234 232 231 229 227 226 227 230 234 236 236 232 226 221 218 216 215 213 210 203 196 190 185 182 180 177 175 173 170 168 167 166 165 165 165 166 168 170 173 175 178 180 182 183 184 184 186 188 190 191 192 193 195 198 200 203 207 209 210 211 210 210 210 209 209 209 210 211
235 232 229 226 222 221 223 227 231 234 236 235 231 224 217 213 211 209 206 203 196 189 183 181 180 179 178 177 176 175 173 171 170 169 169 170 171 172 173 175 177 179 181 184 186 188 189 190 192 193 194 194 194 195 197 199 203 208 210 210 210 210 210 210 210 210 210 210 212
229 227 225 224 222 222 225 230 234 237 237 233 226 218 212 207 206 205 204 200 192 183 178 176 177 178 180 181 183 182 180 177 176 176 176 176 177 178 179 180 180 181 182 184 187 190 193 194 196 198 198 198 198 198 198 200 204 208 211 210 210 210 211 211 211 210 210 211 212
223 223 224 227 228 229 231 235 239 241 237 228 217 209 204 202 203 205 206 201 187 175 171 172 174 178 182 185 185 184 182 181 181 181 181 181 183 184 185 185 185 184 184 184 187 190 194 197 199 200 200 200 200 200 201 203 207 212 214 214 214 214 214 213 213 212 211 212 212
222 224 228 232 234 235 238 241 244 243 235 218 204 198 196 197 199 204 206 202 186 170 166 168 172 176 179 181 182 182 181 182 183 185 185 185 187 188 189 188 188 188 187 187 187 190 193 196 198 199 199 200 200 201 202 206 211 216 219 219 219 218 217 216 215 213 213 212 212
227 229 233 235 237 239 242 245 245 240 227 204 191 187 187 188 190 194 198 199 191 178 169 167 170 171 171 174 177 179 181 182 184 186 187 189 191 191 191 190 189 189 189 189 190 191 192 194 196 197 197 197 198 199 202 205 211 217 222 223 223 221 219 217 216 214 213 212 212
235 236 237 238 240 242 243 242 239 232 214 190 181 179 178 179 181 184 189 192 192 186 178 173 174 174 173 173 174 177 180 182 184 186 188 190 192 192 192 191 190 190 190 191 192 194 195 195 195 195 195 195 195 197 200 204 209 215 220 223 223 221 219 217 216 215 214 212 212
249 245 241 238 237 238 238 236 229 215 195 181 178 177 176 176 178 181 185 189 191 189 186 184 186 188 188 185 183 183 183 184 185 186 188 189 189 190 191 191 190 190 191 193 196 197 198 198 198 197 196 195 195 196 199 203 207 212 216 219 219 219 217 216 215 215 214 213 211
310 277 256 243 234 229 225 220 204 186 176 176 178 179 177 175 177 180 186 191 193 193 191 191 193 195 197 198 197 196 195 194 193 191 190 189 189 190 190 190 189 190 193 196 199 201 202 203 203 202 201 200 199 200 201 204 207 210 212 214 215 215 215 214 214 214 213 212 210
44 45 43 37 330 220 210 196 179 169 169 173 178 181 180 176 176 179 185 191 194 195 194 194 195 197 198 200 201 202 203 203 201 200 198 196 197 197 194 190 188 189 193 198 202 204 206 207 207 207 206 206 206 207 208 209 209 210 210 211 211 212 212 212 212 212 211 210 209
46 48 49 48 49 55 77 136 166 175 178 181 185 187 187 182 176 177 181 188 193 196 197 196 196 197 197 198 199 199 200 201 202 202 203 203 204 204 201 195 191 191 194 198 202 204 206 208 208 208 208 207 207 209 210 210 209 209 208 208 208 208 208 209 210 209 208 207 206
44 45 46 46 48 51 56 61 67 71 77 87 116 159 183 188 181 178 180 185 190 195 197 197 196 195 195 194 194 194 193 193 194 196 198 200 202 203 202 199 196 196 197 200 202 203 205 206 206 206 205 204 204 204 204 204 205 205 205 205 205 205 205 206 206 206 205 204 204
43 43 43 43 44 46 48 51 53 55 58 62 70 81 93 111 151 173 180 185 189 193 196 197 197 196 195 193 192 192 191 191 191 190 190 192 194 196 197 197 197 198 199 201 203 205 206 206 205 204 202 200 198 198 198 199 201 202 202 203 202 202 202 202 202 202 201 201 201
43 42 41 41 41 42 42 43 45 48 51 55 59 62 64 66 72 91 136 170 184 192 195 197 198 199 199 198 197 198 200 201 201 200 198 195 193 192 192 194 197 198 199 201 204 206 208 208 207 205 201 198 196 196 197 199 202 203 203 202 202 200 199 197 197 197 198 199 199
42 42 41 40 40 39 39 40 42 44 47 49 50 51 52 55 58 59 62 74 119 169 186 191 196 199 201 202 202 204 206 208 209 210 209 207 204 201 199 196 196 197 198 199 202 205 208 209 208 206 203 199 198 200 202 203 204 205 205 204 202 200 198 195 195 195 196 196 198
41 41 41 41 40 39 38 39 39 41 42 44 45 47 48 48 49 49 49 51 60 79 110 148 177 190 195 198 200 202 205 207 208 209 210 209 208 206 205 206 206 205 203 201 201 204 206 208 208 207 205 203 205 204 203 203 204 204 203 202 201 199 198 197 196 195 194 195 197
37 39 39 40 39 38 38 38 38 38 39 40 42 44 45 45 44 43 42 43 45 50 57 69 99 142 169 183 190 195 199 202 204 204 205 205 205 204 204 204 205 206 207 206 204 204 206 208 209 209 208 208 207 204 200 198 198 198 198 198 197 197 197 196 196 195 194 195 196
33 34 36 36 37 37 36 36 36 37 37 38 40 41 42 42 42 41 40 40 40 41 45 52 62 70 80 111 155 176 187 193 197 199 199 199 199 199 200 201 201 202 204 205 205 206 206 207 208 209 210 211 208 203 197 194 193 193 193 193 194 194 193 193 193 193 194 194 195
30 31 32 33 34 34 34 34 35 36 37 38 39 39 39 38 38 38 38 39 40 40 42 45 49 51 54 61 77 107 151 177 187 190 191 192 192 194 196 197 198 200 202 204 205 205 205 205 206 207 207 205 203 199 195 192 191 191 191 191 190 190 190 190 191 193 194 195 195
29 30 30 30 30 30 31 32 33 34 36 37 38 38 37 35 35 35 36 37 38 39 41 43 44 44 45 47 50 55 65 94 150 175 183 186 188 190 192 195 199 202 205 206 206 205 204 204 205 205 204 202 200 198 195 193 192 191 191 191 190 190 190 191 193 195 197 198 199
27 28 28 28 28 28 28 29 30 32 34 35 36 35 35 34 33 33 34 34 36 38 41 43 44 45 45 44 44 44 46 51 66 103 154 175 181 185 190 195 202 207 212 213 212 211 209 209 209 208 206 205 204 203 201 199 196 194 193 193 194 196 197 198 199 201 202 203 204
26 26 27 26 26 26 26 27 28 29 30 31 32 32 32 32 32 31 31 32 33 36 39 42 45 47 47 47 46 45 44 43 47 57 79 121 153 168 179 189 201 210 215 219 219 218 217 216 215 212 210 208 208 208 207 204 201 198 197 198 199 202 204 205 206 206 206 206 206
25 25 25 25 25 25 25 25 26 27 28 28 28 28 30 31 31 30 30 31 32 35 37 39 41 43 44 45 46 47 47 47 47 49 55 68 91 112 127 154 196 211 216 219 220 218 217 215 211 207 204 203 203 204 204 202 199 198 197 197 198 200 202 204 205 204 203 202 201
24 24 24 24 24 25 24 25 25 26 26 25 25 25 26 28 29 29 29 30 32 34 36 37 38 40 42 43 45 46 48 50 53 54 57 61 70 77 81 86 118 182 202 209 209 207 204 200 196 193 192 192 193 193 193 191 189 188 187 186 186 187 189 191 193 193 193 193 193
24 24 24 24 24 24 24 24 25 25 24 24 23 23 23 25 26 27 27 29 30 32 34 36 38 40 43 45 46 47 48 51 54 58 62 67 73 79 83 85 88 101 131 161 175 180 182 182 183 184 184 183 181 179 177 175 173 171 170 169 170 173 175 177 179 181 182 184 185
24 25 24 24 24 24 24 24 24 24 23 22 22 22 22 23 24 25 25 27 29 30 31 34 36 39 42 44 46 47 49 51 54 58 61 65 71 79 86 89 90 97 110 127 143 154 162 169 174 179 180 178 174 169 165 161 158 157 156 157 158 161 165 168 170 172 174 176 178
25 26 26 25 24 24 23 24 23 22 22 21 21 22 22 22 22 23 23 25 27 29 31 32 35 37 39 41 43 46 48 49 52 56 60 63 68 75 82 86 89 95 104 116 126 138 149 158 166 172 174 173 169 165 161 156 152 150 149 150 151 154 157 161 164 165 167 170 171
26 26 27 26 25 24 23 22 22 21 21 21 20 21 21 21 21 21 21 23 24 27 29 31 33 34 36 38 43 47 49 50 52 56 60 64 68 73 77 80 83 89 97 106 116 128 139 150 158 165 167 167 165 163 160 155 151 148 147 147 148 149 151 156 159 161 162 164 165
25 25 26 26 25 24 23 22 21 20 20 20 19 19 20 21 21 21 21 21 22 24 25 27 28 30 33 39 45 50 53 55 56 57 60 63 64 66 68 70 74 78 83 90 101 119 138 151 159 163 165 164 162 161 159 155 150 146 145 147 148 147 148 151 154 157 158 159 161